Weather History for Bartlesville, OK

Change the Weather History Date:

Sunday, February 10, 2013

  Actual Average Record
Temperature  
Mean Temperature 46 °F -  
Max Temperature 57 °F 53 °F 77 °F (1954)
Min Temperature 35 °F 24 °F -27 °F (2011)
Degree Days  
Heating Degree Days 19    
Moisture  
Dew Point 37 °F    
Average Humidity 73    
Maximum Humidity 100    
Minimum Humidity 28    
Precipitation  
Precipitation 0.11 in - - ()
Sea Level Pressure  
Sea Level Pressure 29.75 in    
Wind  
Wind Speed 9 mph (SW)    
Max Wind Speed 20 mph    
Max Gust Speed 32 mph    
Visibility 8 miles    
Events Rain    
Averages and records for this station are not official NWS values.
T = Trace of Precipitation, MM = Missing Value Source: NWS Daily Summary

Daily Weather History Graph

Daily Weather History Graph

Search for Another Location

Airport:

Trip Planner

Search our weather history database for the weather conditions in past years. The results will help you decide how hot, cold, wet, or windy it might be!

Date:

Astronomy

Feb. 10, 2013 Rise Set
Actual Time 7:17 AM CST 5:59 PM CST
Civil Twilight 6:50 AM CST 6:26 PM CST
Nautical Twilight 6:20 AM CST 6:56 PM CST
Astronomical Twilight 5:50 AM CST 7:27 PM CST
Moon 7:09 AM CST (2/10) 6:48 PM CST (2/10)
Length of Visible Light 11h 35m
Length of Day
10h 42m
New Moon, 0% of the Moon is Illuminated
Feb 10
New Moon
Feb 17
First Quarter
Feb 25
Full
Mar 4
Last Quarter
Mar 11
New

Hourly Weather History & Observations

Time (CST) Temp. Windchill Dew Point Humidity Pressure Visibility Wind Dir Wind Speed Gust Speed Precip Events Conditions
12:53 AM 44.1 °F 40.8 °F 44.1 °F 100% 29.76 in 2.5 mi SW 5.8 mph - N/A   Overcast
1:24 AM 44.6 °F 40.2 °F 44.6 °F 100% 29.73 in 1.8 mi South 8.1 mph - 0.00 in Rain Light Rain
1:40 AM 44.6 °F 39.7 °F 44.6 °F 100% 29.71 in 2.5 mi SSE 9.2 mph - 0.01 in   Overcast
1:48 AM 44.6 °F 39.7 °F 44.6 °F 100% 29.70 in 3.0 mi SSE 9.2 mph - 0.01 in Rain Light Rain
1:53 AM 44.1 °F 38.6 °F 44.1 °F 100% 29.69 in 3.0 mi SSE 10.4 mph - 0.01 in Rain Light Rain
2:53 AM 45.0 °F 40.1 °F 45.0 °F 100% 29.64 in 3.0 mi South 9.2 mph 18.4 mph 0.02 in   Overcast
3:33 AM 46.4 °F 43.5 °F 46.4 °F 100% 29.67 in 2.5 mi WSW 5.8 mph - 0.03 in Rain Light Rain
3:46 AM 46.4 °F 44.3 °F 46.4 °F 100% 29.65 in 3.0 mi SSW 4.6 mph - 0.05 in Rain Light Rain
3:53 AM 46.0 °F 43.9 °F 46.0 °F 100% 29.65 in 4.0 mi South 4.6 mph - 0.06 in Rain Light Rain
4:09 AM 46.4 °F 42.9 °F 46.4 °F 100% 29.63 in 3.0 mi SSE 6.9 mph - 0.01 in Rain Light Rain
4:27 AM 46.4 °F 44.3 °F 46.4 °F 100% 29.64 in 7.0 mi South 4.6 mph - 0.02 in   Overcast
4:53 AM 46.9 °F - 46.9 °F 100% 29.63 in 8.0 mi SSE 8.1 mph - 0.02 in   Overcast
5:15 AM 46.4 °F 44.3 °F 46.4 °F 100% 29.63 in 8.0 mi South 4.6 mph - N/A   Overcast
5:53 AM 48.9 °F - 48.9 °F 100% 29.63 in 8.0 mi South 8.1 mph - N/A   Overcast
6:20 AM 48.2 °F - 48.2 °F 100% 29.62 in 7.0 mi South 5.8 mph - N/A   Scattered Clouds
6:53 AM 48.0 °F - 48.0 °F 100% 29.63 in 10.0 mi SSW 6.9 mph - N/A   Clear
7:53 AM 48.0 °F - 42.1 °F 80% 29.64 in 10.0 mi SW 9.2 mph - N/A   Clear
8:53 AM 48.0 °F - 36.0 °F 63% 29.67 in 10.0 mi SW 8.1 mph 17.3 mph N/A   Clear
9:53 AM 48.9 °F - 32.0 °F 52% 29.69 in 10.0 mi West 12.7 mph 27.6 mph N/A   Clear
10:53 AM 51.1 °F - 33.1 °F 50% 29.70 in 10.0 mi West 13.8 mph 25.3 mph N/A   Clear
11:53 AM 55.0 °F - 30.9 °F 40% 29.71 in 10.0 mi WSW 19.6 mph 26.5 mph N/A   Clear
12:53 PM 57.0 °F - 30.9 °F 37% 29.70 in 10.0 mi SW 17.3 mph 27.6 mph N/A   Clear
1:53 PM 57.9 °F - 30.9 °F 36% 29.71 in 10.0 mi WSW 19.6 mph 32.2 mph N/A   Clear
2:53 PM 57.9 °F - 28.0 °F 32% 29.72 in 10.0 mi West 19.6 mph 28.8 mph N/A   Clear
3:53 PM 57.9 °F - 25.0 °F 28% 29.75 in 10.0 mi West 18.4 mph 31.1 mph N/A   Clear
4:53 PM 55.9 °F - 25.0 °F 30% 29.79 in 10.0 mi West 15.0 mph 32.2 mph N/A   Clear
5:53 PM 51.1 °F - 27.0 °F 39% 29.85 in 10.0 mi West 13.8 mph 25.3 mph N/A   Clear
6:53 PM 46.9 °F - 26.1 °F 44% 29.92 in 10.0 mi WNW 10.4 mph - N/A   Clear
7:53 PM 45.0 °F 41.2 °F 26.1 °F 48% 29.97 in 10.0 mi Variable 6.9 mph - N/A   Clear
8:53 PM 44.1 °F 39.5 °F 25.0 °F 47% 30.01 in 10.0 mi WNW 8.1 mph - N/A   Clear
9:53 PM 42.1 °F 39.2 °F 25.0 °F 51% 30.04 in 10.0 mi West 4.6 mph - N/A   Clear
10:53 PM 35.1 °F 31.0 °F 25.0 °F 67% 30.06 in 10.0 mi WSW 4.6 mph - N/A   Clear
11:53 PM 39.0 °F 33.4 °F 25.0 °F 57% 30.07 in 10.0 mi West 8.1 mph - N/A   Clear